Location: Glen Waverley
(37.8830°S, 145.1670°E)
Time: 05:40:22
(UTC+10:00)

ISS - Visible Passes

Search period start: 27 April 2017 00:00
Search period end: 07 May 2017 00:00
Orbit: 401 x 409 km, 51.6° (Epoch: 27 April)

Date Brightness Start Highest point End Pass type
(mag) Time Alt. Az. Time Alt. Az. Time Alt. Az.
27 Apr -1.7 19:34:50 10° NW 19:36:11 22° NNW 19:36:11 22° NNW visible
28 Apr -2.7 18:43:15 10° NNW 18:46:10 29° NE 18:46:47 27° ENE visible
29 Apr -2.7 19:27:13 10° WNW 19:29:58 45° WSW 19:29:58 45° WSW visible
30 Apr -3.9 18:35:05 10° NW 18:38:23 81° NE 18:40:20 23° SE visible
30 Apr -0.2 20:13:00 10° WSW 20:13:01 10° WSW 20:13:01 10° WSW visible
01 May -1.9 19:20:09 10° W 19:22:57 24° SSW 19:23:16 24° SSW visible
02 May -2.7 18:27:33 10° WNW 18:30:44 40° SW 18:33:25 13° SE visible
03 May -1.3 19:13:33 10° WSW 19:15:32 15° SSW 19:16:09 14° S visible
04 May -1.7 18:20:33 10° WSW 18:23:10 21° SSW 18:25:49 10° SSE visible
05 May -1.0 19:07:48 10° SSW 19:08:12 10° SSW 19:08:36 10° S visible
06 May -1.2 18:14:02 10° SW 18:15:43 13° SSW 18:17:24 10° S visible
